Location: Newark
(30.0333°N, 31.2167°E)
Time: 14:37:36
(UTC+00:00)

Tiros 1 despin weight - Pass Details

Date: 24 January 2020
Orbit: 594 x 642 km, 48.2° (Epoch: 23 February)

Event Time Altitude Azimuth Distance (km) Brightness Sun altitude
Rises 16:13:54 0° 311° (NW) 2,928 ? -10.9°
Reaches altitude 10° 16:16:13 10° 311° (NW) 2,023 ? -11.4°
Maximum altitude 16:20:54 87° 223° (SW) 643 ? -12.3°
Drops below altitude 10° 16:25:34 10° 134° (SE) 2,022 ? -13.3°
Enters shadow 16:27:23 - 134° (SE) 2,726 ? -13.7°
Sets 16:27:53 0° 134° (SE) 2,927 - -13.8°
